Regional Weather Roundup
Issued by NWS

Home | Current Version | Previous Version | Graphics & Text | Print | Product List | Glossary On
Versions: 1 2 3 4 5 6 7 8 9 10 11 12 13 14 15 16 17 18 19 20 21 22 23 24 25 26 27 28 29 30 31 32 33 34 35 36 37 38 39 40 41 42 43 44 45 46 47 48 49 50
000
ASUS43 KDMX 300707
RWRIA

WEATHER ROUNDUP FOR IOWA
NATIONAL WEATHER SERVICE DES MOINES IA
200 AM CDT TUE SEP 30 2014

NOTE: "FAIR" INDICATES FEW OR NO CLOUDS BELOW 12,000 FEET WITH NO
SIGNIFICANT WEATHER AND/OR OBSTRUCTIONS TO VISIBILITY.

* - THESE STATIONS ARE NOT NWS STATIONS...THUS NOT UNDER NWS
QUALITY CONTROL.  THEY ALSO DO NOT REPORT WEATHER SUCH
AS PRECIPITATION OR FOG.

IAZ001>003-012>014-020>022-031>034-043>046-300800-
   NORTHWEST IOWA

CITY           SKY/WX    TMP DP  RH WIND       PRES   REMARKS
CARROLL *      MOCLDY    55  55 100 NE6       30.01S
CHEROKEE *     PTCLDY    55  54  94 E5        30.01S
DENISON *      MOCLDY    59  59 100 E7        29.97F
LE MARS *        N/A     57  54  88 VRB7      29.98F
ORANGE CITY *  CLEAR     55  52  88 E8        29.99F
SHELDON *      CLOUDY    54  50  87 E12G20    30.00F
SIOUX CITY     PTCLDY    60  57  89 E9        29.96F
SPENCER        CLOUDY    53  49  86 E12       30.03F
STORM LAKE *   CLEAR     54  52  94 E9        30.02F
$$

IAZ055>058-069>071-079>083-090>094-300800-
   SOUTHWEST IOWA

CITY           SKY/WX    TMP DP  RH WIND       PRES   REMARKS
ATLANTIC *     PTCLDY    61  61 100 NE6       29.98F FOG
AUDUBON *      CLEAR     59  54  82 CALM      30.01S HAZE
CLARINDA *     PTCLDY    55  55 100 N3        29.98S
COUNCIL BLFS * PTCLDY    63  63 100 E7G15     29.95F
CRESTON *        N/A     61  61 100 E6        30.00S
HARLAN  *        N/A     61  61 100 E5        30.01F
LAMONI         CLOUDY    61  57  87 VRB5      29.98S
RED OAK *      MOCLDY    61  57  88 NE7       29.97S FOG
SHENANDOAH *   MOCLDY    61  55  82 CALM      29.96S
$$

IAZ047>049-059>061-072>074-084-300800-
   CENTRAL IOWA

CITY           SKY/WX    TMP DP  RH WIND       PRES   REMARKS
AMES           PTCLDY    55  52  89 NE7       30.02R
ANKENY *       MOCLDY    57  55  94 NE5       30.01R
CHARITON *     PTCLDY    61  59  94 NE3       29.99S FOG
DES MOINES     PTCLDY    62  57  83 E7        30.00S
GRINNELL*      MOCLDY    55  54  94 NE7       30.02R
KNOXVILLE *    CLEAR     61  59  94 NE5       29.99R
MARSHALLTOWN   CLOUDY    55  52  89 NE12      30.02R
PELLA *        MOCLDY    61  59  94 NE5       30.01S
PERRY *          N/A     57  55  94 NE3       30.01S
$$

IAZ004>006-015-016-023>025-035-036-300800-
   NORTH CENTRAL IOWA

CITY           SKY/WX    TMP DP  RH WIND       PRES   REMARKS
ALGONA *       PTCLDY    50  50 100 E5        30.05S
CLARION *      CLEAR     52  50  93 VRB7      30.04S
ESTHERVILLE    CLEAR     48  47  96 E6        30.04F
FORT DODGE *   MOCLDY    54  48  82 E8        30.04S
MASON CITY     CLEAR     48  47  96 CALM      30.07R
FOREST CITY *  CLEAR     50  50 100 E5        30.05S
IOWA FALLS *   MOCLDY    52  50  93 NE5       30.04S
$$

IAZ007>011-017>019-026>030-037>042-050>054-066-300800-
   NORTHEAST IOWA

CITY           SKY/WX    TMP DP  RH WIND       PRES   REMARKS
CHARLES CITY * CLEAR     50  48  93 NE8       30.06R
CLINTON *      CLOUDY    55  48  76 NE12      30.06R
DECORAH *      CLOUDY    50  46  87 NE9       30.05S
MONTICELLO *   CLOUDY    55  52  88 E6        30.04R
OELWEIN *      CLEAR     52  48  87 E7        30.06R
WATERLOO       CLOUDY    54  49  83 E12       30.04R
$$

IAZ064-065-067-068-078-300800-
   EAST CENTRAL IOWA

CITY           SKY/WX    TMP DP  RH WIND       PRES   REMARKS
IOWA CITY      CLOUDY    59  56  89 NE13      30.02R
MT. PLEASANT * CLEAR     63  59  88 N6        29.98R FOG
MUSCATINE *    CLOUDY    59  55  88 NE14      30.00R
$$

IAZ062-063-075>077-085>089-095>099-300800-
   SOUTHEAST IOWA

CITY           SKY/WX    TMP DP  RH WIND       PRES   REMARKS
BURLINGTON     CLEAR     64  61  90 NE9       29.97R
FAIRFIELD *    CLEAR     61  57  88 NE7       29.99R
FORT MADISON * CLEAR     63  61  94 N3        29.97S
KEOKUK *       CLEAR     63  59  88 NW3       29.96R
OSKALOOSA *      N/A     59  59 100 NE5       30.00R
CENTERVILLE *  CLEAR     57  57 100 CALM      30.00S
OTTUMWA        CLEAR     62  59  90 NE8       29.99R
WASHINGTON *   CLEAR     61  59  94 NE8       30.00R
$$

ABBREVIATIONS USED IN REMARKS
   TC - TEMPERATURES IN CELSIUS
  WCI - WIND CHILL INDEX
   HX - HEAT INDEX
  VSB - VISIBILITY
$$



USA.gov is the U.S. government's official web portal to all federal, state and local government web resources and services.